CGMPW LTFM-LGSR

Flight info

Callsign CGMPW
Flight time N/A
Altitude 35000
Route IVGUS UY227 RAUMA UG80 IMR UR32 REDRA UP32 RIPLI Y145 IRBEG
Aircraft PC24/L-SBDGIRWY/LB2

Departure

Time N/A
Airport İstanbul Airport (LTFM)

Arrival

Time 2026-04-29 05:45
Airport Santorini International Airport (LGSR)
Time Latitude Longitude Altitude Speed Heading
2026-04-29 05:07 39.10609 26.17262 3499 ft 165 kts 234°
2026-04-29 05:07 39.09614 26.16564 4373 ft 170 kts 186°
2026-04-29 05:08 39.08292 26.16345 4655 ft 209 kts 181°
2026-04-29 05:08 39.07044 26.16962 5664 ft 184 kts 131°
2026-04-29 05:08 39.06090 26.17980 6579 ft 183 kts 163°
2026-04-29 05:08 39.04848 26.18139 7450 ft 177 kts 176°
2026-04-29 05:09 39.03619 26.18249 8323 ft 176 kts 176°
2026-04-29 05:09 39.02407 26.18334 9166 ft 176 kts 176°
2026-04-29 05:09 39.01181 26.18399 10021 ft 176 kts 176°
2026-04-29 05:09 38.99954 26.18456 10790 ft 176 kts 176°
2026-04-29 05:10 38.98963 26.18510 11423 ft 175 kts 176°
2026-04-29 05:10 38.97849 26.18581 12132 ft 174 kts 176°
2026-04-29 05:10 38.96647 26.18677 12899 ft 172 kts 177°
2026-04-29 05:10 38.95457 26.18790 13668 ft 171 kts 176°
2026-04-29 05:11 38.94282 26.18918 14352 ft 170 kts 176°
2026-04-29 05:11 38.93108 26.19060 15006 ft 171 kts 176°
2026-04-29 05:11 38.91979 26.19200 15638 ft 174 kts 176°
2026-04-29 05:11 38.90829 26.19354 16327 ft 175 kts 176°
2026-04-29 05:12 38.89636 26.19522 17037 ft 175 kts 176°
2026-04-29 05:13 38.65763 27.21477 5775 ft 141 kts 360°
2026-04-29 05:13 38.66833 27.21407 6535 ft 164 kts 359°
2026-04-29 05:13 38.68008 27.21328 7605 ft 178 kts 358°
2026-04-29 05:13 38.69397 27.21240 8153 ft 222 kts 358°
2026-04-29 05:14 38.71051 27.21140 8945 ft 248 kts 358°
2026-04-29 05:14 38.72734 27.20468 9876 ft 269 kts 327°
2026-04-29 05:14 38.73906 27.18512 10728 ft 292 kts 294°
2026-04-29 05:14 38.74100 27.15855 11585 ft 314 kts 263°
2026-04-29 05:15 38.73169 27.13242 12470 ft 335 kts 234°
2026-04-29 05:15 38.71289 27.11391 13371 ft 352 kts 206°
2026-04-29 05:15 38.68928 27.10580 14252 ft 359 kts 191°
2026-04-29 05:15 38.66430 27.10158 15098 ft 365 kts 187°
2026-04-29 05:16 38.63880 27.09840 15769 ft 372 kts 186°
2026-04-29 05:16 38.61325 27.09568 15874 ft 356 kts 186°
2026-04-29 05:16 38.58804 27.09324 15864 ft 363 kts 185°
2026-04-29 05:16 38.56296 27.09087 15857 ft 362 kts 185°
2026-04-29 05:17 38.53773 27.08851 15853 ft 363 kts 186°
2026-04-29 05:17 38.51346 27.08159 15851 ft 360 kts 201°
2026-04-29 05:17 38.49488 27.07220 15847 ft 359 kts 204°
2026-04-29 05:17 38.47170 27.06028 15852 ft 359 kts 202°
2026-04-29 05:18 38.45594 27.05375 15849 ft 360 kts 197°
2026-04-29 05:18 38.43160 27.04642 15847 ft 359 kts 194°
2026-04-29 05:18 38.40759 27.03907 16360 ft 350 kts 197°
2026-04-29 05:18 38.37633 27.02762 17381 ft 355 kts 198°
2026-04-29 05:19 38.35236 27.01911 18174 ft 359 kts 197°
2026-04-29 05:19 38.33671 27.01236 18646 ft 358 kts 205°
2026-04-29 05:19 38.31504 26.99689 19348 ft 357 kts 217°
2026-04-29 05:19 38.29621 26.97624 20062 ft 357 kts 229°
2026-04-29 05:20 38.27979 26.95253 20806 ft 358 kts 231°
2026-04-29 05:20 38.26325 26.92872 21577 ft 359 kts 231°
2026-04-29 05:20 38.24670 26.90480 22341 ft 361 kts 231°
2026-04-29 05:20 38.23006 26.88068 22999 ft 365 kts 232°
2026-04-29 05:21 38.21288 26.85577 23045 ft 380 kts 232°
2026-04-29 05:21 38.19526 26.83039 23057 ft 387 kts 231°
2026-04-29 05:21 38.17739 26.80465 23060 ft 388 kts 231°
2026-04-29 05:21 38.15951 26.77888 23055 ft 389 kts 231°
2026-04-29 05:22 38.14181 26.75337 23051 ft 390 kts 231°
2026-04-29 05:22 38.12379 26.72744 23052 ft 392 kts 231°
2026-04-29 05:22 38.10571 26.70143 23053 ft 393 kts 231°
2026-04-29 05:22 38.08580 26.67769 23044 ft 395 kts 221°
2026-04-29 05:23 38.06343 26.65722 23040 ft 397 kts 215°
2026-04-29 05:23 38.03979 26.63963 23040 ft 399 kts 211°
2026-04-29 05:23 38.01490 26.62287 23042 ft 400 kts 211°
2026-04-29 05:23 37.99096 26.60596 23043 ft 398 kts 213°
2026-04-29 05:24 37.96713 26.58825 23034 ft 397 kts 213°
2026-04-29 05:24 37.94315 26.57076 23033 ft 397 kts 213°
2026-04-29 05:24 37.91900 26.55360 23045 ft 398 kts 212°
2026-04-29 05:24 37.89484 26.53633 23042 ft 398 kts 212°
2026-04-29 05:25 37.87079 26.51897 23037 ft 399 kts 212°
2026-04-29 05:25 37.84666 26.50161 23043 ft 398 kts 212°
2026-04-29 05:25 37.82287 26.48455 23042 ft 397 kts 212°
2026-04-29 05:25 37.79886 26.46736 23029 ft 396 kts 212°
2026-04-29 05:26 37.77491 26.45021 23034 ft 395 kts 212°
2026-04-29 05:26 37.75103 26.43309 23033 ft 395 kts 212°
2026-04-29 05:26 37.72711 26.41598 23033 ft 395 kts 213°
2026-04-29 05:26 37.70304 26.39878 23033 ft 396 kts 212°
2026-04-29 05:27 37.67905 26.38165 23034 ft 396 kts 212°
2026-04-29 05:27 37.63096 26.34734 23035 ft 397 kts 212°
2026-04-29 05:27 37.60689 26.33018 23035 ft 397 kts 212°
2026-04-29 05:28 37.58279 26.31302 23030 ft 397 kts 212°
2026-04-29 05:28 37.55902 26.29611 23030 ft 398 kts 212°
2026-04-29 05:28 37.53481 26.27889 23030 ft 398 kts 212°
2026-04-29 05:28 37.51072 26.26178 23030 ft 398 kts 212°
2026-04-29 05:29 37.48660 26.24464 23036 ft 398 kts 212°
2026-04-29 05:29 37.46241 26.22749 23036 ft 398 kts 212°
2026-04-29 05:29 37.43827 26.21037 23036 ft 398 kts 212°
2026-04-29 05:29 37.41415 26.19329 23024 ft 397 kts 212°
2026-04-29 05:30 37.39012 26.17628 23032 ft 395 kts 212°
2026-04-29 05:30 37.36651 26.15958 23029 ft 395 kts 212°
2026-04-29 05:30 37.34253 26.14262 23026 ft 395 kts 212°
2026-04-29 05:30 37.31845 26.12561 23033 ft 396 kts 212°
2026-04-29 05:31 37.29437 26.10863 23034 ft 396 kts 212°
2026-04-29 05:31 37.27022 26.09158 22658 ft 398 kts 212°
2026-04-29 05:31 37.24629 26.07475 22128 ft 391 kts 212°
2026-04-29 05:31 37.22269 26.05812 21626 ft 387 kts 212°
2026-04-29 05:32 37.19935 26.04169 21119 ft 383 kts 212°
2026-04-29 05:32 37.17615 26.02537 20615 ft 380 kts 212°
2026-04-29 05:32 37.15343 26.00941 20127 ft 378 kts 212°
2026-04-29 05:32 37.13055 25.99334 19630 ft 375 kts 212°
2026-04-29 05:33 37.10783 25.97740 19136 ft 373 kts 212°
2026-04-29 05:33 37.08519 25.96152 18644 ft 371 kts 212°
2026-04-29 05:33 37.06269 25.94584 18113 ft 369 kts 211°
2026-04-29 05:33 37.04001 25.93058 17017 ft 373 kts 210°
2026-04-29 05:34 37.01686 25.91525 16015 ft 371 kts 210°
2026-04-29 05:34 36.99473 25.89951 15370 ft 359 kts 213°
2026-04-29 05:34 36.97356 25.88412 14919 ft 345 kts 211°
2026-04-29 05:34 36.95223 25.87103 14303 ft 340 kts 205°
2026-04-29 05:35 36.92978 25.86128 13316 ft 344 kts 201°
2026-04-29 05:35 36.90968 25.84742 12951 ft 324 kts 224°
2026-04-29 05:35 36.89506 25.82663 11130 ft 347 kts 240°
2026-04-29 05:35 36.88321 25.80084 10725 ft 330 kts 244°
2026-04-29 05:36 36.87210 25.77671 10548 ft 310 kts 241°
2026-04-29 05:36 36.86083 25.75461 10506 ft 295 kts 238°
2026-04-29 05:36 36.84815 25.73231 10399 ft 334 kts 234°
2026-04-29 05:36 36.83020 25.71015 9957 ft 385 kts 221°
2026-04-29 05:37 36.80835 25.69050 10153 ft 377 kts 215°
2026-04-29 05:37 36.78778 25.67358 10150 ft 344 kts 215°
2026-04-29 05:37 36.76850 25.65780 10016 ft 321 kts 215°
2026-04-29 05:37 36.75003 25.64254 9318 ft 319 kts 216°
2026-04-29 05:38 36.73117 25.62682 8290 ft 330 kts 214°
2026-04-29 05:38 36.71199 25.61159 7723 ft 325 kts 213°
2026-04-29 05:38 36.69302 25.59689 7310 ft 316 kts 213°
2026-04-29 05:38 36.67448 25.58221 6773 ft 314 kts 216°
2026-04-29 05:39 36.65761 25.56635 6672 ft 289 kts 220°
2026-04-29 05:39 36.64277 25.55139 6723 ft 263 kts 221°
2026-04-29 05:39 36.62891 25.53711 6331 ft 246 kts 221°
2026-04-29 05:39 36.61751 25.52482 5997 ft 200 kts 226°
2026-04-29 05:40 36.60765 25.51337 5276 ft 193 kts 224°
2026-04-29 05:40 36.59733 25.50277 4552 ft 191 kts 221°
2026-04-29 05:40 36.58692 25.49303 4149 ft 189 kts 218°
2026-04-29 05:40 36.57616 25.48360 3924 ft 187 kts 215°
2026-04-29 05:41 36.56527 25.47495 3652 ft 186 kts 212°
2026-04-29 05:41 36.55379 25.46733 3382 ft 188 kts 202°
2026-04-29 05:41 36.54126 25.46261 3130 ft 187 kts 191°
2026-04-29 05:41 36.52867 25.45983 2904 ft 185 kts 185°
2026-04-29 05:42 36.51615 25.45734 2732 ft 182 kts 188°
2026-04-29 05:42 36.50393 25.45405 2537 ft 175 kts 191°
2026-04-29 05:42 36.49217 25.45087 2353 ft 170 kts 191°
2026-04-29 05:42 36.48063 25.44838 2119 ft 169 kts 181°
2026-04-29 05:43 36.46912 25.44902 1786 ft 161 kts 167°
2026-04-29 05:43 36.45863 25.45164 1352 ft 148 kts 164°
2026-04-29 05:43 36.44885 25.45543 1035 ft 142 kts 158°
2026-04-29 05:43 36.43978 25.45997 830 ft 142 kts 156°
2026-04-29 05:44 36.43058 25.46472 717 ft 144 kts 158°
2026-04-29 05:44 36.42128 25.46924 558 ft 139 kts 163°
2026-04-29 05:44 36.41257 25.47301 267 ft 127 kts 163°
2026-04-29 05:44 36.40478 25.47661 107 ft 99 kts 159°
2026-04-29 05:45 36.40121 25.47811 97 ft 11 kts 202°
2026-04-29 05:45 36.40115 25.47708 97 ft 24 kts 283°